* Astronomy

Members Login
Username 
 
Password 
    Remember Me  
Post Info TOPIC: Asteroid 2012 UE34


L

Posts: 131433
Date:
Asteroid 2012 UE34
Permalink  
 


Orbital elements:
2012 UE34                                                Earth MOID = 0.0011 AU
Epoch 2012 Sept. 30.0 TT = JDT 2456200.5                MPC
M 156.23981              (2000.0)            P               Q
n   0.84856266     Peri.   17.74850     -0.80753988     +0.58737658
a   1.1049605      Node   198.52961     -0.55952068     -0.79162565
e   0.1002714      Incl.    9.70173     -0.18659030     -0.16827828
P   1.16           H   23.3           G   0.15           U   7

MPEC 2012 - U61



__________________
Page 1 of 1  sorted by
 
Quick Reply

Please log in to post quick replies.



Create your own FREE Forum
Report Abuse
Powered by ActiveBoard